Regional Weather Roundup
Issued by NWS

Home | Current Version | Previous Version | Graphics & Text | Print | Product List | Glossary Off
Versions: 1 2 3 4 5 6 7 8 9 10 11 12 13 14 15 16 17 18 19 20 21 22 23 24 25 26 27 28 29 30 31 32 33 34 35 36 37 38 39 40 41 42 43 44 45 46 47 48 49 50

000
ASUS43 KDTX 060110
RWRMI
MICHIGAN HOURLY REGIONAL WEATHER ROUNDUP
NATIONAL WEATHER SERVICE DETROIT/PONTIAC MI
900 PM EDT TUE MAY 05 2015

NOTE: "FAIR" INDICATES FEW OR NO CLOUDS BELOW 12,000 FEET WITH NO
SIGNIFICANT WEATHER AND/OR OBSTRUCTION TO VISIBILITY.

MIZ047>049-052>055-059>063-066>070-074>076-081>083-060200-
SOUTHEAST LOWER MICHIGAN

CITY           SKY/WX    TMP DP  RH WIND       PRES   REMARKS
ADRIAN         RAIN      50  49  96 E8        30.26R FOG
ALMA           MOCLDY    55  47  76 CALM      30.27S
ANN ARBOR      LGT RAIN  52  50  93 E5        30.26R FOG
BAD AXE        PTCLDY    50  45  82 CALM      30.29R
CARO           MOCLDY    53  47  80 CALM      30.27S
DETROIT CITY   LGT RAIN  49  48  97 E6        30.28R FOG
DETROIT        LGT RAIN  54  52  94 CALM      30.27S FOG
FLINT          MOCLDY    54  48  80 E3        30.27S
GROSSE ILE     HVY RAIN  52  48  87 CALM      30.26R
HILLSDALE      HVY RAIN  51  51 100 E9        30.25R
HOWELL         CLOUDY    52  51  98 CALM      30.26R FOG

CITY           SKY/WX    TMP DP  RH WIND       PRES   REMARKS
JACKSON        CLOUDY    50  48  93 E8        30.26R
LAMBERTVILLE   LGT RAIN  52  48  87 CALM      30.28R
LANSING        CLOUDY    52  50  93 E5        30.27S
LAPEER         FAIR      52  50  93 CALM      30.27F
MASON          LGT RAIN  51  49  93 CALM      30.26R
MONROE         LGT RAIN  52  50  93 E3        30.25R
PONTIAC        CLOUDY    52  51  97 E3        30.26R
PORT HOPE        N/A     42  37  82 CALM      30.28R
PORT HURON     CLOUDY    46  46 100 CALM      30.29R
TRI CITIES     MOCLDY    55  45  68 NE6       30.28S
MIDLAND        FAIR      54  41  61 NE5       30.27S
TROY           CLOUDY    51  50  96 NE7       30.29R
SAGINAW HB     CLOUDY    54  45  71 N3        30.27S
$$
MIZ043>046-050>051-056>058-064>065-071>073-077>080-060200-
SOUTHWEST LOWER MICHIGAN

CITY           SKY/WX    TMP DP  RH WIND       PRES   REMARKS
BATTLE CREEK   LGT RAIN  51  49  92 E3        30.25R
BENTON HARBOR  CLOUDY    53  50  89 E10       30.21R
BIG RAPIDS     MOCLDY    58  37  46 S9        30.25R
COLDWATER      CLOUDY    52  51  96 E7        30.23F
FREMONT        FAIR      57  37  47 CALM      30.24S
HOLLAND        CLOUDY    53  50  89 E12       30.24R
GRAND RAPIDS   CLOUDY    53  48  83 E9        30.24S
IONIA          FAIR      53  46  79 E5        30.25R
KALAMAZOO      LGT RAIN  52  49  89 E6        30.25R
LUDINGTON      MOCLDY    51  43  74 SW3       30.26R
MARSHALL       LGT RAIN  49  48  97 CALM      30.25R
MOUNT PLEASANT MOCLDY    55  32  41 E5        30.26S
MUSKEGON       CLOUDY    58  44  60 E5        30.24R
SOUTH HAVEN    LGT RAIN  53  51  93 E9        30.22R
$$
MIZ016>042-060200-
NORTHERN LOWER MICHIGAN

CITY           SKY/WX    TMP DP  RH WIND       PRES   REMARKS
ALPENA         PTCLDY    51  41  68 E3        30.29R
BEAVER ISLAND  CLEAR     50  32  50 CALM      30.27R
BELLAIRE       MOCLDY    58  37  45 CALM      30.24S
CADILLAC       CLOUDY    59  21  23 E3        30.24S
CHARLEVOIX     PTCLDY    50  32  49 CALM      30.28S
FRANKFORT      CLOUDY    59  25  27 CALM      30.24R
GAYLORD        MOCLDY    60  20  21 NE7       30.26R
GRAYLING       MOCLDY    55  30  38 CALM      30.26S
HARBOR SPRINGS PTCLDY    60  25  26 NE5       30.26S
HOUGHTON LAKE  MOCLDY    58  29  33 SE5       30.26R
MANISTEE       MOCLDY    46  36  66 NW3       30.25R
OSCODA         PTCLDY    44  39  83 CALM      30.28S
PELLSTON       PTCLDY    57  27  31 SE3       30.27R
ROGERS CITY    PTCLDY    49  43  78 CALM      30.29R
TRAVERSE CITY  CLOUDY    50  34  54 CALM      30.24S
$$
MIZ007>008-015-060200-
EASTERN UPPER MICHIGAN

CITY           SKY/WX    TMP DP  RH WIND       PRES   REMARKS
KINROSS        CLEAR     59  28  31 NW3       30.28R
MACKINAC ISLAN CLEAR     54  30  39 CALM      30.27R
NEWBERRY       CLEAR     57  32  38 E5        30.28R
S. S. MARIE    CLEAR     57  30  35 W7        30.27R
MUNISING         N/A     47  31  53 CALM      30.25S
$$
MIZ004>006-011>014-085-060200-
CENTRAL UPPER MICHIGAN

CITY           SKY/WX    TMP DP  RH WIND       PRES   REMARKS
MANISTIQUE     CLEAR     56  30  38 CALM      30.26R
ESCANABA       PTCLDY    57  30  35 CALM      30.25S
MENOMINEE      MOCLDY    55  30  38 CALM      30.24F
SAWYER-GWINN   CLEAR     61  27  27 S7        30.25R
$$
MIZ001>003-009>011-084-060200-
WESTERN UPPER MICHIGAN

CITY           SKY/WX    TMP DP  RH WIND       PRES   REMARKS
IRON MOUNTAIN  PTCLDY    60  28  29 SE7       30.23S
HOUGHTON       CLEAR     50  27  40 E15       30.22S
COPPER HARBOR    N/A     57  27  31 VRB5      30.23S
IRONWOOD       CLEAR     68  30  24 S9        30.14R
$$

ABBREVIATIONS USED IN REMARKS
   TC - TEMPERATURE IN CELSIUS
  WCI - WIND CHILL INDEX
   HX - HEAT INDEX
  VSB - VISIBILITY



USA.gov is the U.S. government's official web portal to all federal, state and local government web resources and services.